{"data":{"norad_id":53370,"epoch":"2026-09-20T22:26:46.757760Z","epoch_age_seconds":102737,"freshness":"FRESH","line1":"1 53370U 22096A   26263.93526340  .00002698  00000+0  11210-3 0  9990","line2":"2 53370  97.3327 166.3336 0002611  78.9596 281.1935 15.24658029229186","mean_motion":15.24658029,"eccentricity":0.0002611,"inclination_deg":97.3327,"raan_deg":166.3336,"arg_perigee_deg":78.9596,"mean_anomaly_deg":281.1935,"bstar":0.0001121,"rev_number":22918,"period_min":94.447408704788,"perigee_km":490.01875499933,"apogee_km":493.60624262761,"semimajor_km":6869.9494988135,"source":"CELESTRAK","updated_at":"2026-09-21T09:00:08.995227Z"}}